Miami, FL

4:15 PM EST on December 11, 2019 (GMT -0500)
Miami International

Weather History for KMIA - November, 2019

Change the Weather History Date:

Saturday, November 16, 2019

  Actual Average Record
Temperature  
Mean Temperature 70 °F 75 °F  
Max Temperature 78 °F 82 °F 89 °F (1989)
Min Temperature 61 °F 68 °F 44 °F (1940)
Degree Days  
Heating Degree Days 0 0  
Month to date heating degree days 0 0  
Since 1 July heating degree days 0 0  
Cooling Degree Days 5 10  
Month to date cooling degree days 238 176  
Year to date cooling degree days 4909 4248  
Growing Degree Days 20 (Base 50)    
Moisture  
Dew Point 58 °F    
Average Humidity 63    
Maximum Humidity 79    
Minimum Humidity 47    
Precipitation  
Precipitation T in 0.11 in 2.52 in (1966)
Month to date precipitation 1.46 2.02  
Year to date precipitation 60.56 58.61  
Snow  
Snow 0.00 in - - ()
Month to date snowfall 0.0  
Since 1 July snowfall 0.0  
Since 1 September snowfall 0.0  
Snow Depth 0.00 in    
Sea Level Pressure  
Sea Level Pressure 29.88 in    
Wind  
Wind Speed 9 mph (NW)    
Max Wind Speed 17 mph    
Max Gust Speed 23 mph    
Visibility 10 miles    
Events Rain    
T = Trace of Precipitation, MM = Missing Value Source: NWS Daily Summary

Daily Weather History Graph

Daily Weather History Graph

Search for Another Location

Airport or City:

Astronomy

Nov. 16, 2019 Rise Set
Actual Time 6:39 AM EST 5:31 PM EST
Civil Twilight 6:15 AM EST 5:56 PM EST
Nautical Twilight 5:47 AM EST 6:24 PM EST
Astronomical Twilight 5:19 AM EST 6:51 PM EST
Moon 9:12 PM EST (11/16) 10:21 AM EST (11/16)
Length of Visible Light 11h 40m
Length of Day
10h 52m
Waning Gibbous, 82% of the Moon is Illuminated
Nov 16
Waning Gibbous
Nov 19
Last Quarter
Nov 26
New
Dec 4
First Quarter
Dec 12
Full

Hourly Weather History & Observations

Time (EST) Temp. Dew Point Humidity Pressure Visibility Wind Dir Wind Speed Gust Speed Precip Events Conditions
12:44 AM 70.0 °F 64.0 °F 81% 29.89 in 10.0 mi NNW 6.9 mph - N/A   Overcast
12:53 AM 70.0 °F 63.0 °F 78% 29.89 in 10.0 mi NNW 9.2 mph - N/A   Overcast
1:53 AM 69.1 °F 62.1 °F 78% 29.88 in 10.0 mi NW 9.2 mph - N/A   Overcast
2:03 AM 69.1 °F 61.0 °F 75% 29.88 in 10.0 mi NW 9.2 mph 18.4 mph N/A   Overcast
2:39 AM 69.1 °F 62.1 °F 78% 29.87 in 10.0 mi NW 8.1 mph - N/A   Overcast
2:53 AM 69.1 °F 62.1 °F 78% 29.87 in 10.0 mi NW 6.9 mph - N/A   Overcast
3:27 AM 68.0 °F 62.1 °F 81% 29.87 in 10.0 mi Variable 4.6 mph - N/A   Overcast
3:42 AM 68.0 °F 61.0 °F 78% 29.87 in 10.0 mi NW 9.2 mph 17.3 mph N/A   Overcast
3:53 AM 68.0 °F 61.0 °F 78% 29.88 in 10.0 mi NW 10.4 mph 18.4 mph N/A   Overcast
4:11 AM 66.9 °F 60.1 °F 79% 29.87 in 10.0 mi NW 9.2 mph 16.1 mph 0.00 in Rain Light Rain
4:53 AM 66.9 °F 60.1 °F 79% 29.87 in 10.0 mi NW 8.1 mph - 0.00 in   Overcast
5:53 AM 66.9 °F 57.9 °F 73% 29.88 in 10.0 mi NW 6.9 mph - N/A   Overcast
7:53 AM 66.9 °F 57.0 °F 70% 29.92 in 10.0 mi WNW 8.1 mph - N/A   Mostly Cloudy
8:53 AM 69.1 °F 57.0 °F 65% 29.93 in 10.0 mi NW 12.7 mph 19.6 mph N/A   Mostly Cloudy
9:53 AM 71.1 °F 55.9 °F 59% 29.93 in 10.0 mi NNW 10.4 mph - N/A   Partly Cloudy
10:53 AM 72.0 °F 55.9 °F 57% 29.91 in 10.0 mi NW 10.4 mph 18.4 mph N/A   Partly Cloudy
12:53 PM 75.0 °F 55.0 °F 50% 29.85 in 10.0 mi WNW 10.4 mph 19.6 mph N/A   Scattered Clouds
1:53 PM 77.0 °F 55.0 °F 47% 29.82 in 10.0 mi West 12.7 mph 20.7 mph N/A   Mostly Cloudy
2:53 PM 77.0 °F 55.9 °F 48% 29.82 in 10.0 mi WNW 10.4 mph 18.4 mph N/A   Mostly Cloudy
3:53 PM 75.0 °F 55.0 °F 50% 29.82 in 10.0 mi NW 10.4 mph - N/A   Mostly Cloudy
4:53 PM 73.0 °F 55.0 °F 53% 29.83 in 10.0 mi WNW 9.2 mph 16.1 mph N/A   Mostly Cloudy
5:53 PM 71.1 °F 55.9 °F 59% 29.84 in 10.0 mi NNW 9.2 mph - N/A   Partly Cloudy
6:53 PM 70.0 °F 55.0 °F 59% 29.85 in 10.0 mi NW 6.9 mph - N/A   Partly Cloudy
7:53 PM 68.0 °F 55.0 °F 63% 29.87 in 10.0 mi Variable 4.6 mph - N/A   Clear
8:53 PM 66.0 °F 55.0 °F 68% 29.89 in 10.0 mi NNW 6.9 mph - N/A   Clear
9:53 PM 64.0 °F 54.0 °F 70% 29.91 in 10.0 mi NNW 9.2 mph - N/A   Partly Cloudy
10:53 PM 63.0 °F 54.0 °F 72% 29.91 in 10.0 mi NNW 5.8 mph - N/A   Partly Cloudy
11:53 PM 62.1 °F 54.0 °F 75% 29.90 in 10.0 mi NNW 9.2 mph - N/A   Partly Cloudy